Latest Weather Observations for Archerfield

IDQ60801

Issued at 9:32 am EST Thursday 27 April 2017 (issued every 30 minutes, with the page automatically refreshed every 10 minutes)

About weather observations | Map of weather stations | Latest weather observations for QLD | Other Formats
Station Details ID: 040211 Name: ARCHERFIELD AIRPORT Lat: -27.57 Lon: 153.01 Height: 12.5 m
Data from the previous 72 hours. | See also: Recent months at Archerfield
Date/Time
EST
Temp
°C
App
Temp
°C
Dew
Point
°C
Rel
Hum
%
Delta-T
°C
Wind Press
QNH
hPa
Press
MSL
hPa
Rain since
9am
mm
Dir  Spd
km/h
Gust
km/h
Spd
kts
Gust
kts
27/09:30am 16.8 12.7 7.7 55 4.6 WSW 19 24 10 13 1014.6 1014.5 0.0
27/09:00am 16.3 12.4 7.3 55 4.5 W 17 22 9 12 1014.6 1014.5 2.2
27/08:30am 15.6 12.3 8.1 61 3.8 W 15 22 8 12 1014.6 1014.5 2.2
27/08:00am 14.7 11.0 8.0 64 3.3 WSW 17 24 9 13 1014.1 1014.0 2.2
27/07:30am 13.7 8.9 7.2 65 3.2 W 22 30 12 16 1013.4 1013.3 2.2
27/07:00am 13.0 8.7 6.8 66 3.0 WNW 19 28 10 15 1013.3 1013.2 2.2
27/06:30am 11.9 9.1 6.8 71 2.4 WNW 11 17 6 9 1013.2 1013.1 2.2
27/06:00am 12.6 7.8 7.3 70 2.6 W 22 26 12 14 1012.6 1012.5 2.2
27/05:30am 12.7 8.0 7.8 72 2.4 W 22 32 12 17 1012.4 1012.3 2.2
27/05:00am 13.1 9.5 8.4 73 2.3 W 17 20 9 11 1012.2 1012.1 2.2
27/04:30am 13.3 10.9 8.8 74 2.3 W 11 19 6 10 1012.3 1012.2 2.2
27/04:00am 13.0 10.8 9.3 78 1.9 W 11 13 6 7 1012.1 1012.0 2.2
27/03:30am 13.7 11.6 9.9 78 2.0 WNW 11 13 6 7 1012.2 1012.1 2.2
27/03:00am 14.2 11.9 10.4 78 2.0 WNW 13 17 7 9 1012.1 1012.0 2.2
27/02:30am 14.5 12.4 11.3 81 1.7 W 13 15 7 8 1012.2 1012.1 2.2
27/02:00am 15.6 13.0 12.0 79 2.0 W 17 20 9 11 1012.3 1012.2 2.2
27/01:30am 16.3 14.7 12.7 79 2.0 WSW 13 19 7 10 1012.2 1012.1 2.2
27/01:00am 16.4 15.3 13.1 81 1.8 WSW 11 15 6 8 1012.1 1012.0 2.2
27/12:30am 16.3 14.9 13.4 83 1.6 W 13 15 7 8 1011.9 1011.8 2.2
27/12:00am 16.9 15.7 14.0 83 1.6 WSW 13 17 7 9 1011.8 1011.7 2.2
 
Date/Time
EST
Temp
°C
App
Temp
°C
Dew
Point
°C
Rel
Hum
%
Delta-T
°C
Wind Press
QNH
hPa
Press
MSL
hPa
Rain since
9am
mm
Dir  Spd
km/h
Gust
km/h
Spd
kts
Gust
kts
26/11:30pm 17.3 16.3 14.6 84 1.6 W 13 15 7 8 1011.6 1011.5 2.2
26/11:00pm 18.1 17.4 15.5 85 1.5 WSW 13 17 7 9 1011.5 1011.4 2.2
26/10:30pm 18.1 17.7 16.3 89 1.1 WSW 13 15 7 8 1011.5 1011.4 2.2
26/10:00pm 18.6 19.2 16.8 89 1.1 W 9 13 5 7 1011.4 1011.3 2.2
26/09:30pm 19.0 19.7 17.0 88 1.2 WSW 9 11 5 6 1011.3 1011.2 2.2
26/09:00pm 19.9 19.7 17.5 86 1.5 W 15 19 8 10 1011.2 1011.1 2.2
26/08:30pm 20.3 20.9 17.7 85 1.6 W 11 13 6 7 1011.1 1011.0 2.2
26/08:00pm 19.4 20.4 17.7 90 1.0 WNW 9 13 5 7 1010.5 1010.4 2.2
26/07:30pm 19.9 21.7 18.4 91 0.9 WNW 6 7 3 4 1010.1 1010.0 2.2
26/07:00pm 20.5 22.2 18.6 89 1.2 WNW 7 9 4 5 1009.9 1009.8 2.2
26/06:30pm 20.7 21.7 18.6 88 1.3 WNW 11 15 6 8 1009.5 1009.4 2.2
26/06:00pm 21.2 21.6 18.9 87 1.4 W 15 19 8 10 1009.5 1009.4 2.2
26/05:30pm 21.6 23.2 19.2 86 1.5 NW 9 19 5 10 1009.0 1008.9 2.2
26/05:00pm 22.6 23.0 19.0 80 2.3 N 15 19 8 10 1008.7 1008.6 0.6
26/04:30pm 22.7 23.1 18.9 79 2.4 N 15 19 8 10 1008.5 1008.4 0.6
26/04:00pm 23.2 24.2 18.7 76 2.8 N 11 17 6 9 1008.6 1008.5 0.6
26/03:30pm 23.2 25.1 19.8 81 2.2 N 9 13 5 7 1008.7 1008.6 0.6
26/03:00pm 22.1 24.2 19.3 84 1.8 NNW 7 11 4 6 1009.1 1009.0 0.6
26/02:30pm 22.4 23.6 18.2 77 2.6 WNW 9 11 5 6 1009.6 1009.5 0.4
26/02:00pm 22.9 23.6 18.0 74 3.1 NNW 11 15 6 8 1009.3 1009.2 0.2
26/01:30pm 22.5 23.5 17.8 75 2.9 NNE 9 11 5 6 1009.8 1009.7 0.2
26/01:00pm 22.3 22.7 18.1 77 2.6 NNE 13 17 7 9 1010.0 1009.9 0.2
26/12:30pm 22.1 23.5 17.7 76 2.7 N 7 9 4 5 1010.7 1010.6 0.0
26/12:00pm 21.8 22.7 17.6 77 2.6 NNW 9 13 5 7 1011.4 1011.3 0.0
26/11:30am 22.5 23.4 16.5 69 3.7 NE 7 9 4 5 1011.7 1011.6 0.0
26/11:00am 22.6 23.6 16.4 68 3.8 N 6 9 3 5 1012.4 1012.3 0.0
26/10:30am 22.1 24.0 16.6 71 3.3 ENE 2 9 1 5 1013.0 1012.9 0.0
26/10:00am 21.4 23.0 16.8 75 2.8 S 4 11 2 6 1013.6 1013.5 0.0
26/09:30am 20.6 20.8 16.8 79 2.3 SW 11 13 6 7 1014.0 1013.9 0.0
26/09:00am 20.8 23.0 16.4 76 2.7 CALM 0 0 0 0 1013.7 1013.6 0.0
26/08:30am 19.8 22.1 16.8 83 1.8 CALM 0 6 0 3 1013.8 1013.7 0.0
26/08:00am 18.6 20.5 16.6 88 1.2 SSW 2 6 1 3 1014.1 1014.0 0.0
26/07:30am 17.6 18.3 16.1 91 0.9 SW 7 11 4 6 1014.0 1013.9 0.0
26/07:00am 16.8 18.7 15.8 94 0.6 CALM 0 0 0 0 1013.6 1013.5 0.0
26/06:30am 15.1 16.2 13.6 91 0.8 CALM 0 0 0 0 1013.6 1013.5 0.0
26/06:00am 16.1 17.7 15.0 93 0.6 CALM 0 0 0 0 1013.7 1013.6 0.0
26/05:30am 15.9 17.1 14.8 93 0.6 S 2 6 1 3 1013.7 1013.6 0.0
26/05:00am 15.9 16.3 14.8 93 0.6 SSW 6 7 3 4 1013.4 1013.3 0.0
26/04:30am 15.7 16.0 14.4 92 0.7 SSE 6 9 3 5 1013.2 1013.1 0.0
26/04:00am 16.2 17.9 15.2 94 0.6 CALM 0 0 0 0 1013.3 1013.2 0.0
26/03:30am 16.0 16.2 14.7 92 0.7 SE 7 9 4 5 1013.3 1013.2 0.0
26/03:00am 16.1 16.3 14.6 91 0.9 SSW 7 9 4 5 1013.4 1013.3 0.0
26/02:30am 16.2 17.0 14.7 91 0.9 SW 4 9 2 5 1013.2 1013.1 0.0
26/02:00am 16.5 16.9 14.7 89 1.0 SW 6 9 3 5 1013.2 1013.1 0.0
26/01:30am 17.6 19.4 15.6 88 1.2 CALM 0 0 0 0 1013.4 1013.3 0.0
26/01:00am 17.8 19.1 15.2 85 1.5 S 2 6 1 3 1013.9 1013.8 0.0
26/12:30am 17.6 18.9 15.2 86 1.4 WSW 2 7 1 4 1014.0 1013.9 0.0
26/12:00am 18.5 20.5 16.1 86 1.4 CALM 0 6 0 3 1014.2 1014.1 0.0
 
Date/Time
EST
Temp
°C
App
Temp
°C
Dew
Point
°C
Rel
Hum
%
Delta-T
°C
Wind Press
QNH
hPa
Press
MSL
hPa
Rain since
9am
mm
Dir  Spd
km/h
Gust
km/h
Spd
kts
Gust
kts
25/11:30pm 18.7 19.1 16.3 86 1.4 N 9 9 5 5 1014.5 1014.4 0.0
25/11:00pm 18.6 19.0 16.2 86 1.4 NNE 9 11 5 6 1014.7 1014.6 0.0
25/10:30pm 19.2 19.6 16.4 84 1.7 N 9 11 5 6 1015.0 1014.9 0.0
25/10:00pm 19.1 19.1 16.3 84 1.7 NNE 11 13 6 7 1015.4 1015.3 0.0
25/09:30pm 19.3 19.8 16.5 84 1.7 N 9 13 5 7 1015.6 1015.5 0.0
25/09:00pm 18.9 19.8 16.1 84 1.7 NNW 6 7 3 4 1015.8 1015.7 0.0
25/08:30pm 19.0 19.3 16.0 83 1.8 NNE 9 11 5 6 1015.8 1015.7 0.0
25/08:00pm 19.5 19.1 16.2 81 2.0 NNE 13 17 7 9 1015.6 1015.5 0.0
25/07:30pm 20.1 19.8 16.5 80 2.2 NNE 13 17 7 9 1015.5 1015.4 0.0
25/07:00pm 20.7 20.1 16.7 78 2.4 NNE 15 19 8 10 1015.2 1015.1 0.0
25/06:30pm 20.6 20.3 16.4 77 2.5 N 13 19 7 10 1015.2 1015.1 0.0
25/06:00pm 21.1 20.4 15.4 70 3.4 NNE 13 19 7 10 1015.0 1014.9 0.0
25/05:30pm 21.7 19.9 14.4 63 4.3 NNE 17 20 9 11 1015.0 1014.9 0.0
25/05:00pm 23.3 20.7 13.8 55 5.5 NNE 20 24 11 13 1014.9 1014.8 0.0
25/04:30pm 24.7 22.4 13.0 48 6.8 NE 17 22 9 12 1014.5 1014.4 0.0
25/04:00pm 25.3 22.7 13.2 47 7.1 NNE 19 26 10 14 1014.4 1014.3 0.0
25/03:30pm 26.1 24.0 13.6 46 7.4 NNE 17 22 9 12 1014.6 1014.5 0.0
25/03:00pm 26.6 25.9 14.4 47 7.3 NNE 11 19 6 10 1014.8 1014.7 0.0
25/02:30pm 26.5 26.3 14.6 48 7.1 ENE 9 17 5 9 1014.9 1014.8 0.0
25/02:00pm 26.6 26.0 14.7 48 7.1 NNE 11 17 6 9 1015.1 1015.0 0.0
25/01:30pm 26.6 26.1 13.7 45 7.6 NNE 9 15 5 8 1015.7 1015.6 0.0
25/01:00pm 26.2 25.5 14.3 48 7.1 N 11 20 6 11 1016.2 1016.1 0.0
25/12:30pm 25.4 25.8 15.4 54 6.0 SSW 7 13 4 7 1016.8 1016.7 0.0
25/12:00pm 24.7 24.8 14.5 53 6.1 WNW 7 13 4 7 1017.4 1017.3 0.0
25/11:30am 24.0 24.3 14.4 55 5.7 NNE 6 9 3 5 1018.0 1017.9 0.0
25/11:00am 24.3 25.8 16.6 62 4.7 WNW 4 9 2 5 1018.6 1018.5 0.0
25/10:30am 22.7 22.9 15.8 65 4.2 S 9 13 5 7 1019.0 1018.9 0.0
25/10:00am 22.6 23.9 16.2 67 3.9 S 4 9 2 5 1019.2 1019.1 0.0
25/09:30am 21.5 22.2 16.0 71 3.3 W 7 11 4 6 1019.6 1019.5 0.0
25/09:00am 20.1 20.8 16.1 78 2.4 WSW 7 9 4 5 1019.7 1019.6 0.0
25/08:30am 19.2 19.8 15.7 80 2.1 W 7 11 4 6 1019.7 1019.6 0.0
25/08:00am 17.8 18.2 15.4 86 1.4 WSW 7 9 4 5 1019.9 1019.8 0.0
25/07:30am 16.5 17.0 15.0 91 0.9 WSW 6 7 3 4 1019.8 1019.7 0.0
25/07:00am 15.3 15.5 14.3 94 0.6 S 6 6 3 3 1019.4 1019.3 0.0
25/06:50am 14.8 14.9 14.0 95 0.5 SW 6 7 3 4 1019.4 1019.3 0.0
25/06:30am 13.6 13.3 12.7 94 0.5 SSW 6 7 3 4 1019.2 1019.1 0.0
25/06:00am 13.7 14.2 12.8 94 0.5 SW 2 7 1 4 1018.9 1018.8 0.0
25/05:30am 13.9 13.5 13.0 94 0.5 SW 7 9 4 5 1018.7 1018.6 0.0
25/05:00am 13.9 13.5 13.0 94 0.5 SSW 7 7 4 4 1018.4 1018.3 0.0
25/04:30am 14.9 15.0 13.9 94 0.6 S 6 7 3 4 1018.1 1018.0 0.0
25/04:02am 14.4 15.5 13.4 94 0.6 CALM 0 0 0 0 1018.4 1018.3 0.0
25/04:00am 14.5 15.6 13.5 94 0.6 CALM 0 0 0 0 1018.4 1018.3 0.0
25/03:40am 13.1 13.5 11.3 89 1.0 CALM 0 0 0 0 1018.7 1018.6 0.0
25/03:30am 15.2 16.5 14.2 94 0.6 CALM 0 0 0 0 1018.9 1018.8 0.0
25/03:00am 14.1 15.0 13.0 93 0.6 CALM 0 0 0 0 1018.9 1018.8 0.0
25/02:30am 14.4 15.3 13.0 91 0.8 CALM 0 0 0 0 1018.8 1018.7 0.0
25/02:00am 14.9 16.1 13.8 93 0.6 CALM 0 0 0 0 1018.9 1018.8 0.0
25/01:30am 14.6 14.6 13.5 93 0.6 SW 6 7 3 4 1019.1 1019.0 0.0
25/01:00am 14.9 14.4 13.8 93 0.6 SW 9 11 5 6 1019.3 1019.2 0.0
25/12:30am 15.5 16.4 14.0 91 0.8 S 2 6 1 3 1019.4 1019.3 0.0
25/12:00am 16.1 17.0 15.0 93 0.6 S 4 6 2 3 1019.7 1019.6 0.0
 
Date/Time
EST
Temp
°C
App
Temp
°C
Dew
Point
°C
Rel
Hum
%
Delta-T
°C
Wind Press
QNH
hPa
Press
MSL
hPa
Rain since
9am
mm
Dir  Spd
km/h
Gust
km/h
Spd
kts
Gust
kts
24/11:55pm 16.0 17.6 14.9 93 0.6 CALM 0 6 0 3 1019.8 1019.7 0.0
24/11:39pm 15.0 16.0 13.2 89 1.0 CALM 0 0 0 0 1020.1 1020.0 0.0
24/11:30pm 16.1 17.3 14.8 92 0.7 SSW 2 6 1 3 1020.3 1020.2 0.0
24/11:00pm 15.9 16.1 14.3 90 0.9 S 6 9 3 5 1020.3 1020.2 0.0
24/10:30pm 16.9 17.5 15.4 91 0.9 SSE 6 9 3 5 1020.3 1020.2 0.0
24/10:00pm 16.4 17.5 14.6 89 1.0 S 2 6 1 3 1020.8 1020.7 0.0
24/09:30pm 17.3 17.8 15.1 87 1.3 SSW 6 7 3 4 1020.8 1020.7 0.0
24/09:00pm 18.3 20.1 15.4 83 1.7 CALM 0 0 0 0 1020.7 1020.6 0.0
24/08:30pm 18.2 19.9 15.3 83 1.7 CALM 0 0 0 0 1020.5 1020.4 0.0
24/08:00pm 19.1 20.9 15.6 80 2.1 CALM 0 0 0 0 1020.4 1020.3 0.0
24/07:30pm 19.2 21.0 15.5 79 2.2 CALM 0 6 0 3 1020.2 1020.1 0.0
24/07:00pm 20.0 20.4 15.4 75 2.7 ENE 7 11 4 6 1019.9 1019.8 0.0
24/06:30pm 20.5 20.6 15.5 73 3.0 ESE 9 11 5 6 1019.7 1019.6 0.0
24/06:00pm 21.2 20.9 15.5 70 3.4 E 11 17 6 9 1019.4 1019.3 0.0
24/05:30pm 21.8 20.7 15.2 66 3.9 E 15 20 8 11 1019.1 1019.0 0.0
24/05:00pm 22.8 20.9 14.1 58 5.1 E 17 20 9 11 1018.9 1018.8 0.0
24/04:30pm 23.4 21.7 14.7 58 5.2 ENE 17 24 9 13 1018.7 1018.6 0.0
24/04:00pm 23.2 20.8 13.9 56 5.4 E 19 24 10 13 1018.6 1018.5 0.0
24/03:30pm 23.7 22.6 15.2 59 5.1 E 15 20 8 11 1018.6 1018.5 0.0
24/03:00pm 24.1 23.7 15.1 57 5.4 ESE 11 22 6 12 1018.5 1018.4 0.0
24/02:30pm 24.7 23.5 15.1 55 5.8 NE 15 20 8 11 1018.5 1018.4 0.0
24/02:00pm 23.3 22.6 15.4 61 4.7 NE 13 17 7 9 1018.7 1018.6 0.0
24/01:30pm 24.3 23.3 14.7 55 5.7 ESE 13 20 7 11 1018.8 1018.7 0.0
24/01:00pm 26.1 25.8 15.5 52 6.4 NE 11 15 6 8 1019.0 1018.9 0.0
24/12:30pm 24.1 23.5 14.5 55 5.7 SE 11 17 6 9 1019.4 1019.3 0.0
24/12:00pm 24.5 24.2 14.3 53 6.0 SSW 9 13 5 7 1019.8 1019.7 0.0
24/11:30am 25.1 24.4 15.4 55 5.9 SSE 13 19 7 10 1020.4 1020.3 0.0
24/11:00am 24.4 24.0 15.3 57 5.5 S 11 17 6 9 1021.1 1021.0 0.0
24/10:30am 24.2 24.0 15.7 59 5.1 S 11 20 6 11 1021.6 1021.5 0.0
24/10:00am 22.9 22.5 15.2 62 4.6 S 11 17 6 9 1021.8 1021.7 0.0

Other Formats:

Comma delimited format used in spreadsheet applications
http://www.bom.gov.au/fwo/IDQ60801/IDQ60801.94575.axf

JavaScript Object Notation format (JSON) in row-major order
http://www.bom.gov.au/fwo/IDQ60801/IDQ60801.94575.json